This is the latest recevied weather packets stored in our database for station/object HB9MZI. If no packets are shown the sender has not sent any weather packets the latest 10 day(s).
| Time | Temp. | Humidity | Pressure | Rain* | Wind** | Luminosity | Snow |
|---|---|---|---|---|---|---|---|
| 1788053187 | 20° C | 93% | 992.4 hPa | 0 mm | 0 m/s | - | - |
| 1788052585 | 20° C | 93% | 992.3 hPa | 0 mm | 0 m/s | - | - |
| 1788051372 | 20° C | 92% | 992.2 hPa | 0 mm | 0 m/s | - | - |
| 1788050768 | 20° C | 91% | 992.3 hPa | 0 mm | 0 m/s | - | - |
| 1788049860 | 20° C | 92% | 992.2 hPa | 0 mm | 0 m/s | - | - |
| 1787990880 | 23.33° C | 63% | 991.2 hPa | 0 mm | 0 m/s | - | - |
| 1787990576 | 23.33° C | 63% | 991.2 hPa | 0 mm | 0 m/s | - | - |
| 1787989668 | 22.78° C | 68% | 991.4 hPa | 0 mm | 0 m/s | - | - |
| 1787989365 | 22.22° C | 72% | 991.5 hPa | 0 mm | 0 m/s | - | - |
| 1787988761 | 22.22° C | 70% | 991.5 hPa | 0 mm | 0.89 m/s, 183° | - | - |
| 1787986039 | 21.11° C | 72% | 991.5 hPa | 0 mm | 0 m/s | - | - |
| 1787985736 | 21.67° C | 70% | 991.5 hPa | 0 mm | 0 m/s | - | - |
| 1787985133 | 21.11° C | 69% | 991.4 hPa | 0 mm | 3.13 m/s, 155° | - | - |
| 1787957909 | 22.78° C | 88% | 990.1 hPa | 0 mm | 0 m/s | - | - |
| 1787957304 | 22.78° C | 91% | 990 hPa | 0 mm | 0 m/s | - | - |
| 1787957002 | 22.78° C | 91% | 990 hPa | 0 mm | 0 m/s | - | - |
| 1787956094 | 23.33° C | 87% | 989.9 hPa | 0 mm | 0 m/s | - | - |
| 1787954581 | 23.33° C | 87% | 990 hPa | 0 mm | 0.45 m/s, 127° | - | - |
| 1787950648 | 23.33° C | 96% | 990 hPa | 0 mm | 0 m/s | - | - |
| 1787950345 | 23.33° C | 97% | 989.9 hPa | 0 mm | 0.45 m/s, 240° | - | - |
| 1787949740 | 23.33° C | 98% | 989.7 hPa | 0 mm | 0 m/s | - | - |
| 1787947622 | 23.33° C | 99% | 989.8 hPa | 0 mm | 0 m/s | - | - |
| 1787946715 | 23.33° C | 97% | 989.6 hPa | 0 mm | 0 m/s | - | - |
| 1787946412 | 23.33° C | 97% | 989.5 hPa | 0 mm | 0 m/s | - | - |
| 1787946110 | 23.33° C | 96% | 989.3 hPa | 0 mm | 0 m/s | - | - |
* Rain latest hour (hover to see other rain measurements)
** Current wind speed in m/s (hover to see current wind gust speed)